Regional Weather Roundup
Issued by NWS

Home | Current Version | Previous Version | Graphics & Text | Print | Product List | Glossary On
Versions: 1 2 3 4 5 6 7 8 9 10 11 12 13 14 15 16 17 18 19 20 21 22 23 24 25 26 27 28 29 30 31 32 33 34 35 36 37 38 39 40 41 42 43 44 45 46 47 48 49 50
004
ASUS43 KFSD 271710
RWRSD

WEATHER ROUNDUP FOR SOUTH DAKOTA
NATIONAL WEATHER SERVICE SIOUX FALLS SD
1200 PM CDT TUE JUN 27 2017

NOTE: "FAIR" INDICATES FEW OR NO CLOUDS BELOW 12,000 FEET WITH NO
SIGNIFICANT WEATHER AND/OR OBSTRUCTIONS TO VISIBILITY.


SDZ001>005-009-010-012>017-271800-
NORTHWEST AND NORTH CENTRAL SOUTH DAKOTA

CITY           SKY/WX    TMP DP  RH WIND       PRES   REMARKS
BUFFALO          N/A     85  53  33 SW8       29.58F
FAITH            N/A     81  58  45 S22G35    29.65S
MOBRIDGE       CLOUDY    79  52  38 S32G41    29.69F
$$

SDZ012>016-024>037-041>051-057-063-072>074-271800-
SOUTHWEST AND SOUTH CENTRAL SOUTH DAKOTA

CITY           SKY/WX    TMP DP  RH WIND       PRES   REMARKS
RAPID CTY ARPT CLOUDY    85  58  39 S18       29.66F
PIERRE         SUNNY     80  56  43 S25G39    29.72F
CUSTER         CLOUDY    80  48  32 VRB6      29.83F
ELLSWORTH AFB  SUNNY     83  58  42 S13G20    29.66F
PHILIP         SUNNY     83  59  44 S20G33    29.68F
PINE RIDGE     SUNNY     77  59  53 S24G31    29.75F
SPEARFISH      LGT RAIN  86  48  26 W14G22    29.72R
WINNER         FAIR      81  56  42 S23G36    29.79F
$$

SDZ004>011-016>023-039-040-271800-
NORTHEAST SOUTH DAKOTA

CITY           SKY/WX    TMP DP  RH WIND       PRES   REMARKS
ABERDEEN       PTSUNNY   73  47  39 S18G29    29.84F
WATERTOWN      SUNNY     70  46  42 S16G28    29.91F
BROOKINGS      SUNNY     70  45  40 S23G30    29.94F
SISSETON         N/A     73  47  39 S20       29.88F
$$

SDZ017-020-022-023-036>040-048>070-271800-
SOUTHEAST SOUTH DAKOTA

CITY           SKY/WX    TMP DP  RH WIND       PRES   REMARKS
SIOUX FALLS    PTSUNNY   72  53  51 S21G30    29.97F
HURON          MOSUNNY   74  53  48 S18G31    29.87F
CHAMBERLAIN    MOSUNNY   79  53  40 SE21G29   29.81F
MITCHELL       SUNNY     76  49  38 S22G29    29.90F
YANKTON        SUNNY     73  50  44 S18G28    29.94F
$$

ABBREVIATIONS USED IN REMARKS
   TC - TEMPERATURE IN CELSIUS
  WCI - WIND CHILL INDEX
   HX - HEAT INDEX
  VSB - VISIBILITY





USA.gov is the U.S. government's official web portal to all federal, state and local government web resources and services.